www.pogodaiklimat.ru

Погода и климат >> Архив погоды >> Таиланд >> Аэропорт Суварнабхуми


ПОГОДА в Аэропорту Суварнабхуми

  • Прогноз погоды в Аэропорту Суварнабхуми
  • Монитор погоды в Аэропорту Суварнабхуми

АРХИВ ПОГОДЫ в Аэропорту Суварнабхуми

Время (UTC), дата Ветер
(напр.,м/с)
 
Видим.   Явления Облачность Т
(С)
Тd
(С)
f
(%)
Тe
(С)
Тes
(С)
Комфортность P
(гПа)
Po
(гПа)
Тmin
(С)
Tmax
(С)
R
(мм)
R24
(мм)
S
(см)
21 12.06 Ю 6 10 км 8/1 600 м
[Cu med, cong Ac trans Cs]
+29.0 +24.6 77 +41 +41 опасность
перегрева
1006.4 1005.7
00 13.06 ЮЗ 8 10 км 8/4 600 м
[Cu Sc Ac trans Cs]
+30.0 +24.9 74 +43 +43 опасность
перегрева
1007.0 1006.3 +28.6
03 13.06 Ю 9 10 км 8/4 600 м
[Cu Sc Ac lent Cs]
+32.3 +24.8 65 +46 +46 опасность
перегрева
1008.1 1007.4
06 13.06 ЮЗ 6 10 км 8/5 600 м
[Cu Sc Ac trans Cs]
+33.3 +25.0 62 +47 +50 опасность
перегрева
1006.9 1006.2
09 13.06 Ю 12 10 км 9/5 600 м
[Cu Sc Ac und Cs]
+32.0 +25.4 68 +46 +46 опасность
перегрева
1005.0 1004.3
12 13.06 Ю 13 9000 м зарница 9/4 600 м
[Cb cap Ac und Cs]
+30.0 +25.8 78 +45 +45 опасность
перегрева
1006.1 1005.4 +33.8
15 13.06 Ю 6 9000 м дымка {гроза} 9/4 600 м
[Cu Sc Ac trans Cs]
+30.7 +25.8 75 +46 +46 опасность
перегрева
1008.0 1007.3
18 13.06 ЮЗ 4 10 км {гроза} 8/3 600 м
[Cu Sc Ac trans Cs]
+29.3 +25.2 79 +43 +43 опасность
перегрева
1007.0 1006.3
21 13.06 Ю 7 10 км 6/1 600 м
[Cu med, cong Ac trans Cs]
+27.6 +24.6 84 +39 +39 очень
душно
1006.5 1005.8
00 14.06 Ю 6 10 км 6/1 600 м
[Cu med, cong Ac trans Cs]
+29.0 +23.6 73 +40 +40 очень
душно
1007.3 1006.6 +27.6
03 14.06 ЮЗ 10 10 км 8/4 600 м
[Cu Sc Ac trans Cs]
+32.1 +24.6 65 +45 +45 опасность
перегрева
1008.6 1007.9
06 14.06 Ю 10 10 км 8/4 600 м
[Cu Sc Ac trans Cs]
+34.1 +24.3 57 +47 +47 опасность
перегрева
1007.0 1006.3
09 14.06 Ю 12 10 км 6/1 600 м
[Cu Sc Ac cuf Cs]
+33.3 +24.0 58 +45 +45 опасность
перегрева
1004.6 1003.9
12 14.06 Ю 11 10 км 6/1 600 м
[Cu med, cong Ac trans Cs]
+30.9 +24.8 70 +44 +44 опасность
перегрева
1005.9 1005.2 +34.2
15 14.06 Ю 8 10 км 6/1 600 м
[Cu med, cong Ac trans Cs]
+30.4 +25.9 77 +45 +45 опасность
перегрева
1008.2 1007.5
18 14.06 ЮЗ 5 10 км 6/1 600 м
[Cu med, cong Ac trans Cs]
+29.7 +24.6 74 +42 +42 опасность
перегрева
1007.7 1007.0
21 14.06 ЮЗ 5 10 км 8/1 600 м
[Cu Sc Ac trans Cs]
+28.7 +24.7 79 +41 +41 опасность
перегрева
1006.1 1005.4
00 15.06 ЮЗ 7 10 км 6/1 600 м
[Cu Sc Ac trans Cs]
+29.6 +24.6 75 +42 +42 опасность
перегрева
1007.8 1007.1 +28.0
03 15.06 Ю 7 10 км 6/4 600 м
[Cu Sc Ac trans Cs]
+32.7 +24.5 62 +45 +47 опасность
перегрева
1008.7 1008.0
06 15.06 Ю 15 10 км 8/5 600 м
[Cb cap Ac lent Cs]
+33.2 +24.9 62 +47 +47 опасность
перегрева
1006.9 1006.2
09 15.06 Ю 8 10 км 6/1 600 м
[Cu med, cong Ac trans Cs]
+33.6 +25.0 61 +47 +48 опасность
перегрева
1004.6 1003.9
12 15.06 Ю 4 10 км 9/4 600 м
[Cu Sc Ac und Cs]
+30.7 +25.8 75 +46 +46 опасность
перегрева
1005.3 1004.6 +34.3
15 15.06 Ю 9 10 км зарница 8/6 600 м
[Cb cap Ac lent Cs]
+30.7 +26.8 80 +48 +48 опасность
перегрева
1007.8 1007.1
18 15.06 С 1 10 км слаб. дождь {гроза} 9/3 600 м
[Cu Sc Ac As Cs]
+27.5 +23.9 81 +38 +38 очень
душно
1007.5 1006.8 0.0
21 15.06 В 2 10 км 9/3 600 м
[Cu Sc Ac As Cs]
+27.9 +25.8 88 +41 +41 опасность
перегрева
1006.3 1005.6
00 16.06 В 2 10 км 8/3 600 м
[Cu Sc Ac As Cs]
+27.6 +25.6 89 +41 +41 опасность
перегрева
1006.8 1006.1 +26.5
03 16.06 ЮЗ 5 10 км 8/1 600 м
[Cu hum Ac trans Cs]
+32.4 +23.5 59 +43 +48 опасность
перегрева
1008.3 1007.6
06 16.06 ЮЗ 11 10 км 8/3 600 м
[Cu Sc Ac trans Cs]
+34.1 +23.3 53 +44 +45 опасность
перегрева
1006.4 1005.7
09 16.06 З 12 1500 м гроза, ливневой дождь 10/5 300 м
[Cb cap Ac As Cs]
+25.9 +25.0 95 +37 +37 очень
душно
1005.1 1004.3 5
12 16.06 Ю 2 9000 м в посл. час дождь {гроза} 9/5 300 м
[Sc Ac As Cs]
+27.5 +25.9 91 +41 +41 опасность
перегрева
1006.3 1005.6 +34.6 2
15 16.06 ЮВ 3 10 км {дождь} 9/3 600 м
[Cu Sc Ac As Cs]
+28.3 +26.9 92 +44 +44 опасность
перегрева
1008.2 1007.5 0.0
18 16.06 штиль 0 10 км {дождь} 8/3 600 м
[Cu med, cong Ac trans Cs]
+28.0 +26.7 93 +44 +44 опасность
перегрева
1007.0 1006.3 7
21 16.06 Ю 3 10 км 8/1 600 м
[Cu hum Ac und Cs]
+27.5 +24.3 83 +39 +39 очень
душно
1005.7 1005.0
00 17.06 ЮЗ 4 10 км 9/1 600 м
[Cu Sc Ac und Cs]
+28.8 +25.2 81 +42 +42 опасность
перегрева
1006.9 1006.2 +25.7
03 17.06 ЮЗ 10 7000 м слаб. дождь 10/3 300 м
[Cu Sc Ac As Cs]
+28.8 +26.0 85 +43 +44 опасность
перегрева
1008.9 1008.2 0.4
06 17.06 ЮЗ 11 10 км {дождь} 9/3 600 м
[Cu Sc Ac As Cs]
+29.6 +24.0 72 +41 +41 опасность
перегрева
1007.5 1006.8 0.0
09 17.06 ЮЗ 8 10 км 9/3 600 м
[Cu Sc Ac As Cs]
+29.3 +24.6 76 +42 +42 опасность
перегрева
1005.9 1005.2
12 17.06 Ю 7 10 км 9/3 600 м
[Cu Sc Ac As Cs]
+29.1 +23.9 74 +40 +40 очень
душно
1005.7 1005.0 +30.4
15 17.06 Ю 3 10 км 9/3 600 м
[Cu Sc Ac As Cs]
+29.0 +23.6 73 +40 +40 очень
душно
1008.0 1007.3
18 17.06 Ю 2 10 км 9/3 600 м
[Cu Sc Ac As Cs]
+28.6 +24.4 78 +40 +40 очень
душно
1007.1 1006.4
21 17.06 Ю 5 10 км 9/4 600 м
[Cu Sc Ac As Cs]
+29.0 +24.1 75 +40 +40 очень
душно
1005.9 1005.2
00 18.06 Ю 7 10 км 9/3 600 м
[Cu Sc Ac trans Cs]
+29.2 +25.2 79 +42 +43 опасность
перегрева
1006.5 1005.8 +28.4
03 18.06 ЮЗ 13 10 км 9/5 600 м
[Cu Sc Ac und Cs]
+31.0 +24.0 66 +43 +43 опасность
перегрева
1007.9 1007.2
06 18.06 ЮЗ 10 10 км 9/5 600 м
[Cu Sc Ac trans Cs]
+32.0 +23.0 59 +42 +42 опасность
перегрева
1006.9 1006.2
09 18.06 В 12 10 км 9/4 600 м
[Cu Sc Ac As Cs]
+30.7 +23.9 67 +42 +42 опасность
перегрева
1005.3 1004.6
12 18.06 Ю 12 10 км 9/4 600 м
[Cu Sc Ac trans Cs]
+29.9 +24.0 71 +41 +41 опасность
перегрева
1006.0 1005.3 +33.4
15 18.06 Ю 6 10 км 9/3 600 м
[Cu Sc Ac trans Cs]
+29.8 +24.2 72 +42 +42 опасность
перегрева
1007.7 1007.0
18 18.06 Ю 7 10 км 9/1 600 м
[Cu Sc Ac trans Cs]
+28.6 +24.0 76 +40 +40 очень
душно
1007.4 1006.7
21 18.06 Ю 9 10 км 9/3 300 м
[Cu Sc Ac und Cs]
+28.4 +24.7 80 +40 +40 очень
душно
1006.7 1006.0
00 19.06 Ю 7 10 км 9/3 600 м
[Cu Sc Ac As Cs]
+28.6 +25.0 81 +41 +41 опасность
перегрева
1007.5 1006.8 +27.9
03 19.06 Ю 5 10 км 9/3 600 м
[Cu Sc Ac As Cs]
+31.2 +24.0 66 +43 +46 опасность
перегрева
1004.5 1003.8
06 19.06 Ю 6 10 км 9/4 600 м
[Cu Sc Ac As Cs]
+31.8 +23.8 63 +43 +46 опасность
перегрева
1007.2 1006.5
09 19.06 Ю 9 10 км 8/4 600 м
[Cu Sc Ac trans Cs]
+32.0 +24.8 66 +45 +46 опасность
перегрева
1005.6 1004.9
12 19.06 Ю 7 10 км 8/3 600 м
[Cu Sc Ac trans Cs]
+29.8 +25.0 75 +43 +43 опасность
перегрева
1006.1 1005.4 +32.9
15 19.06 Ю 6 10 км слаб. дождь 9/3 600 м
[Cu Sc Ac As Cs]
+25.9 +24.0 89 +36 +36 очень
душно
1007.6 1006.9 1
18 19.06 ЮЗ 2 10 км слаб. дождь 9/1 600 м
[Cu med, cong Ac As Cs]
+26.7 +23.9 85 +37 +37 очень
душно
1007.7 1007.0 0.0

 

Местоположение метеостанции Аэропорт Суварнабхуми (Таиланд): широта 13.68 долгота 100.76 высота над уровнем моря 6 м.

В архиве по умолчанию представлена погода в Аэропорту Суварнабхуми за последнюю неделю. Архивные данные за месяц целиком и за предыдущие месяцы, начиная с января 2011 года, Вы можете получить, выбрав интересующий диапазон дат из раскрывающегося списка и нажав кнопку "Ввод!".


*Определитесь, кто Вы:
робот инопланетянин человек

Внимание! Время в таблицах - всемирное. Для получения местного времени необходимо прибавить поправку, которая равна 7 ч.

Смотрите также архив погоды в соседних городах и на ближайших метеорологических станциях:

Погода в Бангна Агромете (Таиланд) (15 км)
Погода в Самутрудкан Агромете (Таиланд) (18 км)
Погода в Бангкоке 2 (Таиланд) (21 км)
Погода в Бангкоке (Таиланд) (22 км)
Погода в Дон Муанг (Таиланд) (32 км)
Погода в Бангкок Пилот (Таиланд) (38 км)
Погода в Чонбури (Таиланд) (42 км)
Погода в Ратбури (Таиланд) (42 км)
Погода в Патхумтхани (Таиланд) (49 км)
Погода на Ко Сичан (Таиланд) (57 км)

Пояснения к столбцам:

Ветер - указаны скорость ветра в м/с - средняя за 10 мин, порывы в срок и между сроками (в фигурных скобках) и направление, откуда дует ветер: С - северный, СВ - северо-восточный, В - восточный, ЮВ - юго-восточный, Ю - южный, ЮЗ - юго-западный, З - западный, СЗ - северо-западный.
Видимость - горизонтальная дальность видимости в метрах или километрах. При видимости от 1 до 10 км при отсутствии осадков обычно наблюдается дымка, при ухудшении видимости до 1 км и менее - туман. В сухую погоду видимость может ухудшаться дымом, пылью или мглою.
Явления - указаны атмосферные явления, наблюдавшиеся в срок или в последний час перед сроком; фигурными скобками обозначены явления, наблюдавшиеся между сроками (за 1-3 часа до срока); квадратными скобками обозначены град или гололедные отложения с указанием их диаметра в мм.
Облачность - указаны через наклонную черту общая и нижняя облачность в баллах и высота нижней границы облаков в метрах; квадратными скобками обозначены формы облаков: Ci - перистые, Cs - перисто-слоистые, Cc - перисто-кучевые, Ac - высококучевые, As - высокослоистые, Sc - слоисто-кучевые, Ns - слоисто-дождевые, Cu - кучевые, Cb - кучево-дождевые. Подробнее классификацию облаков см. в Атласе облаков (PDF).
T - Температура воздуха - температура, измеренная на высоте 2 м над землей.
Td - Температура точки росы - температура, при понижении до которой содержащийся в воздухе водяной пар достигнет насыщения.
f - Относительная влажность воздуха - влажноcть воздуха, измеренная на высоте 2 м над землей.
Te - Эффективная температура - температура, которую ощущает одетый по сезону человек в тени. Характеристика душности погоды. При расчете учитывается влияние влажности воздуха и скорости ветра на теплоощущения человека.
Tes - Эффективная температура на солнце - температура, которую ощущает человек, с поправкой на солнечный нагрев. Характеристика знойности погоды. Зависит от высоты солнца над горизонтом, облачности и скорости ветра. Ночью, в пасмурную погоду, а также при ветре 12 м/с и более поправка равна нулю.
P - Атмосферное давление - приведенное к уровню моря атмосферное давление.
Po - Атмосферное давление - измеренное на уровне метеостанции атмосферное давление.
Tmin - Минимальная температура - минимум температуры воздуха на высоте 2 м над землей.
Tmax - Максимальная температура - максимум температуры воздуха на высоте 2 м над землей.
R - Количество осадков - Количество выпавших осадков за период времени, мм. При наведении курсора мыши на число - период времени, за который выпало указанное количество осадков.
R24 - Количество осадков - Количество выпавших осадков за 24 часа, мм.
S - Снежный покров - Высота снежного покрова, см. При наведении курсора мыши на число - состояние снежного покрова и степень покрытия местности в баллах.